Change the Weather History Date:

Sunday, February 3, 2013

  Actual Average (KCLT) Record (KCLT)
Temperature  
Mean Temperature 42 °F 42 °F  
Max Temperature 51 °F 53 °F 81 °F (1989)
Min Temperature 32 °F 31 °F 8 °F (1917)
Degree Days  
Heating Degree Days 24 23  
Month to date heating degree days 70  
Since 1 July heating degree days 2177  
Cooling Degree Days 0 0  
Month to date cooling degree days 0  
Year to date cooling degree days 0  
Moisture  
Dew Point 25 °F    
Average Humidity 58    
Maximum Humidity 93    
Minimum Humidity 30    
Precipitation  
Precipitation 0.00 in 0.12 in 1.25 in (1952)
Month to date precipitation 0.34  
Year to date precipitation 3.75  
Snow  
Snow 0.00 in 0.10 in 1.50 in (1905)
Month to date snowfall 0.2  
Since 1 July snowfall 2.7  
Snow Depth -    
Sea Level Pressure  
Sea Level Pressure 29.94 in    
Wind  
Wind Speed 8 mph (West)    
Max Wind Speed 16 mph    
Max Gust Speed 29 mph    
Visibility 10 miles    
Events      
T = Trace of Precipitation, MM = Missing Value Source: NWS Daily Summary

Daily Weather History Graph

Daily Weather History Graph

Search for Another Location

Airport or City:

Trip Planner

Search our weather history database for the weather conditions in past years. The results will help you decide how hot, cold, wet, or windy it might be!

Date:

Astronomy

Feb. 03, 2013 Rise Set
Actual Time 7:22 AM EST 5:54 PM EST
Civil Twilight 6:55 AM EST 6:21 PM EST
Nautical Twilight 6:25 AM EST 6:51 PM EST
Astronomical Twilight 5:55 AM EST 7:21 PM EST
Moon 12:48 AM EST (2/3) 11:32 AM EST (2/3)
Length of Visible Light 11h 25m
Length of Day
10h 32m
Waning Gibbous, 49% of the Moon is Illuminated
Feb 3
Waning Gibbous
Feb 10
New
Feb 17
First Quarter
Feb 25
Full
Mar 4
Last Quarter

Hourly Weather History & Observations

Time (EST) Temp. Windchill Dew Point Humidity Pressure Visibility Wind Dir Wind Speed Gust Speed Precip Events Conditions
12:15 AM 37.4 °F 31.4 °F 32.0 °F 81% 30.02 in 10.0 mi West 8.1 mph - N/A   Overcast
12:35 AM 37.4 °F 30.8 °F 32.0 °F 81% 30.01 in 10.0 mi WSW 9.2 mph - N/A   Overcast
12:55 AM 37.4 °F 30.8 °F 33.8 °F 87% 29.99 in 10.0 mi WSW 9.2 mph - N/A   Overcast
1:15 AM 37.4 °F 30.8 °F 33.8 °F 87% 29.99 in 10.0 mi SW 9.2 mph - N/A   Overcast
1:35 AM 37.4 °F 32.8 °F 33.8 °F 87% 29.99 in 10.0 mi West 5.8 mph - N/A   Overcast
1:55 AM 37.4 °F 32.1 °F 33.8 °F 87% 29.98 in 10.0 mi West 6.9 mph - N/A   Overcast
2:15 AM 37.4 °F 32.1 °F 33.8 °F 87% 29.97 in 10.0 mi WSW 6.9 mph - N/A   Overcast
2:35 AM 37.4 °F 32.8 °F 32.0 °F 81% 29.96 in 10.0 mi West 5.8 mph - N/A   Overcast
2:55 AM 35.6 °F 29.2 °F 32.0 °F 87% 29.95 in 10.0 mi WSW 8.1 mph - N/A   Mostly Cloudy
3:15 AM 35.6 °F 31.7 °F 32.0 °F 87% 29.95 in 10.0 mi WSW 4.6 mph - N/A   Scattered Clouds
3:35 AM 35.6 °F 27.5 °F 33.8 °F 93% 29.95 in 10.0 mi WSW 11.5 mph 17.3 mph N/A   Mostly Cloudy
3:55 AM 35.6 °F 28.0 °F 33.8 °F 93% 29.95 in 10.0 mi WSW 10.4 mph - N/A   Overcast
4:15 AM 35.6 °F 28.6 °F 33.8 °F 93% 29.94 in 10.0 mi WSW 9.2 mph - N/A   Overcast
4:35 AM 35.6 °F 29.2 °F 32.0 °F 87% 29.93 in 10.0 mi West 8.1 mph - N/A   Overcast
4:55 AM 35.6 °F 28.6 °F 32.0 °F 87% 29.93 in 10.0 mi WSW 9.2 mph - N/A   Mostly Cloudy
5:15 AM 33.8 °F 27.0 °F 32.0 °F 93% 29.93 in 10.0 mi West 8.1 mph - N/A   Scattered Clouds
5:35 AM 33.8 °F 30.8 °F 32.0 °F 93% 29.94 in 10.0 mi West 3.5 mph - N/A   Scattered Clouds
5:55 AM 33.8 °F 25.8 °F 32.0 °F 93% 29.95 in 10.0 mi West 10.4 mph - N/A   Scattered Clouds
6:15 AM 33.8 °F 25.8 °F 30.2 °F 87% 29.95 in 10.0 mi West 10.4 mph 16.1 mph N/A   Clear
6:35 AM 35.6 °F 28.0 °F 23.0 °F 60% 29.95 in 10.0 mi West 10.4 mph 20.7 mph N/A   Clear
6:55 AM 35.6 °F 29.9 °F 21.2 °F 56% 29.95 in 10.0 mi West 6.9 mph - N/A   Clear
7:15 AM 35.6 °F 29.9 °F 21.2 °F 56% 29.95 in 10.0 mi WNW 6.9 mph - N/A   Clear
7:35 AM 33.8 °F 30.8 °F 21.2 °F 60% 29.95 in 10.0 mi West 3.5 mph - N/A   Clear
7:55 AM 32.0 °F 28.7 °F 23.0 °F 69% 29.95 in 10.0 mi West 3.5 mph - N/A   Clear
8:15 AM 35.6 °F 32.8 °F 23.0 °F 60% 29.95 in 10.0 mi WSW 3.5 mph - N/A   Clear
8:35 AM 35.6 °F 29.2 °F 26.6 °F 70% 29.95 in 10.0 mi SW 8.1 mph - N/A   Clear
8:55 AM 37.4 °F 32.1 °F 28.4 °F 70% 29.96 in 10.0 mi SW 6.9 mph - N/A   Clear
9:15 AM 41.0 °F 35.8 °F 26.6 °F 57% 29.95 in 10.0 mi SW 8.1 mph - N/A   Clear
9:35 AM 39.2 °F 35.0 °F 26.6 °F 61% 29.96 in 10.0 mi SW 5.8 mph - N/A   Clear
9:55 AM 42.8 °F 38.0 °F 26.6 °F 53% 29.95 in 10.0 mi West 8.1 mph - N/A   Clear
10:15 AM 42.8 °F 36.6 °F 26.6 °F 53% 29.96 in 10.0 mi West 11.5 mph 16.1 mph N/A   Scattered Clouds
10:35 AM 42.8 °F 37.0 °F 26.6 °F 53% 29.95 in 10.0 mi West 10.4 mph - N/A   Scattered Clouds
10:55 AM 44.6 °F 39.2 °F 26.6 °F 49% 29.94 in 10.0 mi West 10.4 mph - N/A   Clear
11:15 AM 46.4 °F 44.3 °F 26.6 °F 46% 29.93 in 10.0 mi West 4.6 mph 17.3 mph N/A   Clear
11:35 AM 46.4 °F 39.8 °F 26.6 °F 46% 29.93 in 10.0 mi WSW 16.1 mph 21.9 mph N/A   Clear
11:55 AM 48.2 °F - 26.6 °F 43% 29.91 in 10.0 mi WSW 15.0 mph 20.7 mph N/A   Clear
12:15 PM 48.2 °F - 26.6 °F 43% 29.90 in 10.0 mi WNW 8.1 mph 17.3 mph N/A   Mostly Cloudy
12:35 PM 48.2 °F - 26.6 °F 43% 29.89 in 10.0 mi West 9.2 mph - N/A   Mostly Cloudy
12:55 PM 48.2 °F - 24.8 °F 40% 29.88 in 10.0 mi WNW 6.9 mph - N/A   Overcast
1:15 PM 50.0 °F - 23.0 °F 35% 29.88 in 10.0 mi West 16.1 mph 24.2 mph N/A   Mostly Cloudy
1:35 PM 51.8 °F - 23.0 °F 33% 29.86 in 10.0 mi WNW 11.5 mph 28.8 mph N/A   Mostly Cloudy
1:55 PM 51.8 °F - 21.2 °F 30% 29.86 in 10.0 mi West 11.5 mph 20.7 mph N/A   Scattered Clouds
2:15 PM 51.8 °F - 21.2 °F 30% 29.86 in 10.0 mi West 11.5 mph 20.7 mph N/A   Clear
2:35 PM 51.8 °F - 21.2 °F 30% 29.86 in 10.0 mi NW 10.4 mph 17.3 mph N/A   Mostly Cloudy
2:55 PM 51.8 °F - 23.0 °F 33% 29.86 in 10.0 mi WNW 8.1 mph 17.3 mph N/A   Scattered Clouds
3:15 PM 50.0 °F - 23.0 °F 35% 29.87 in 10.0 mi NW 8.1 mph - N/A   Clear
3:35 PM 50.0 °F - 23.0 °F 35% 29.87 in 10.0 mi WNW 8.1 mph - N/A   Clear
3:55 PM 50.0 °F - 19.4 °F 30% 29.87 in 10.0 mi WNW 5.8 mph - N/A   Clear
4:15 PM 50.0 °F - 19.4 °F 30% 29.88 in 10.0 mi WNW 9.2 mph 18.4 mph N/A   Clear
4:35 PM 50.0 °F - 21.2 °F 32% 29.88 in 10.0 mi WNW 5.8 mph - N/A   Clear
4:55 PM 48.2 °F - 23.0 °F 37% 29.90 in 10.0 mi WNW 6.9 mph 16.1 mph N/A   Clear
5:15 PM 46.4 °F 43.5 °F 21.2 °F 37% 29.92 in 10.0 mi WNW 5.8 mph - N/A   Clear
5:35 PM 44.6 °F 40.2 °F 21.2 °F 39% 29.94 in 10.0 mi WNW 8.1 mph - N/A   Clear
5:55 PM 44.6 °F 40.2 °F 21.2 °F 39% 29.94 in 10.0 mi WNW 8.1 mph - N/A   Clear
6:15 PM 42.8 °F 37.5 °F 21.2 °F 42% 29.95 in 10.0 mi WNW 9.2 mph - N/A   Clear
6:35 PM 42.8 °F 37.0 °F 21.2 °F 42% 29.93 in 10.0 mi WNW 10.4 mph 21.9 mph N/A   Clear
6:55 PM 41.0 °F 39.0 °F 19.4 °F 42% 29.96 in 10.0 mi WNW 3.5 mph - N/A   Clear
7:15 PM 39.2 °F - 19.4 °F 45% 29.97 in 10.0 mi Calm Calm - N/A   Clear
7:35 PM 39.2 °F - 19.4 °F 45% 29.98 in 10.0 mi Calm Calm - N/A   Clear
7:55 PM 37.4 °F 32.8 °F 21.2 °F 52% 29.98 in 10.0 mi WNW 5.8 mph - N/A   Clear
8:15 PM 37.4 °F 32.1 °F 21.2 °F 52% 29.98 in 10.0 mi WNW 6.9 mph - N/A   Clear
8:35 PM 39.2 °F 35.9 °F 21.2 °F 49% 29.98 in 10.0 mi West 4.6 mph - N/A   Clear
8:55 PM 41.0 °F 34.7 °F 21.2 °F 45% 29.98 in 10.0 mi WNW 10.4 mph 19.6 mph N/A   Clear
9:15 PM 41.0 °F 37.1 °F 21.2 °F 45% 29.99 in 10.0 mi NW 5.8 mph 18.4 mph N/A   Clear
9:35 PM 39.2 °F 37.0 °F 21.2 °F 49% 29.99 in 10.0 mi WNW 3.5 mph - N/A   Clear
9:55 PM 37.4 °F - 21.2 °F 52% 30.00 in 10.0 mi Calm Calm - N/A   Clear
10:15 PM 37.4 °F 33.8 °F 21.2 °F 52% 29.99 in 10.0 mi West 4.6 mph - N/A   Clear
10:35 PM 37.4 °F 34.9 °F 21.2 °F 52% 29.99 in 10.0 mi West 3.5 mph - N/A   Clear
10:55 PM 37.4 °F 34.9 °F 21.2 °F 52% 30.00 in 10.0 mi NNW 3.5 mph - N/A   Clear
11:15 PM 33.8 °F 30.8 °F 21.2 °F 60% 30.01 in 10.0 mi West 3.5 mph - N/A   Clear
11:35 PM 35.6 °F 31.7 °F 21.2 °F 56% 30.00 in 10.0 mi West 4.6 mph - N/A   Clear
11:55 PM 35.6 °F - 19.4 °F 52% 30.01 in 10.0 mi Calm Calm - N/A   Clear